Hourly Data Report for May 20, 2021

TORONTO CITY
ONTARIO
Current Station Operator: ECCC - MSC

43°40'00.000" N
79°24'00.000" W
112.50 m
6158355
71508
XTO

Download Data

Hourly Data (May 2021)
Hourly Data Report for May 20, 2021
TIME
LST
Temp Definition
°C
Dew Point Definition
°C
Rel Hum Definition
%
Precip. Amount Definition
mm

Wind Dir Definition
10's deg

Wind Spd Definition
km/h
Visibility Definition
km
Stn Press Definition
kPa
Hmdx Definition


Wind Chill Definition


Weather Definition


00:00 18.7 8.6 52 0.0       101.32     LegendNANA
01:00 18.8 8.9 53 0.0       101.31     LegendNANA
02:00 18.7 8.2 50 0.0       101.33     LegendNANA
03:00 18.6 8.6 52 0.0       101.33     LegendNANA
04:00 18.1 9.2 56 0.0       101.37     LegendNANA
05:00 18.4 9.9 58 0.0       101.41     LegendNANA
06:00 18.3 9.7 57 0.0       101.46     LegendNANA
07:00 19.9 9.6 51 0.0       101.49     LegendNANA
08:00 22.1 10.5 47 0.0       101.50     LegendNANA
09:00 23.6 10.1 42 0.0       101.50 25   LegendNANA
10:00 23.8 10.2 42 0.0       101.55 25   LegendNANA
11:00 24.5 10.3 41 0.0       101.51 26   LegendNANA
12:00 26.4 11.6 40 0.0       101.48 28   LegendNANA
13:00 28.0 12.8 39 0.0       101.45 31   LegendNANA
14:00 29.5 12.0 34 0.0       101.41 32   LegendNANA
15:00 29.8 12.2 34 0.0       101.35 32   LegendNANA
16:00 28.2 11.6 36 0.0       101.33 30   LegendNANA
17:00 27.3 12.0 39 0.0       101.32 30   LegendNANA
18:00 26.6 11.8 40 0.0       101.32 29   LegendNANA
19:00 24.5 10.8 42 0.0       101.34 26   LegendNANA
20:00 23.5 10.7 44 0.0       101.36 25   LegendNANA
21:00 22.2 9.8 46 0.0       101.40     LegendNANA
22:00 21.0 10.8 52 0.0       101.43     LegendNANA
23:00 20.5 11.0 54 0.0       101.44     LegendNANA

Notes on Data Quality.

Legend

  • E = Estimated
  • M = Missing
  • NA = Not Available*
  • [empty] = Indicates an unobserved value
Date modified: